This demonstration page uses our WeatherBlox Daily Observations layout. Learn more.

Left ArrowRight Arrow

39.08367, -84.50855

Hourly Observations for May 17, 2020

Temp ( °F °C ) Dew Point ( °F °C ) Humidity (%) Winds ( mph kmh ) Pressure ( in mb ) Visibility ( mi km ) Precip ( " mm )
12:53 am 00:53 Mostly Clear 68 20 63 17.2 84 84 NNE 5 7 29.98 1015 10 16.0934 0 0
1:53 am 01:53 Cloudy 65 18.3 64 17.8 97 97 Calm 29.98 1015 10 16.0934 0.001 0.001
2:53 am 02:53 Mostly Clear 64 17.8 62 16.7 93 93 E 3 6 29.96 1014 10 16.0934 0 0
3:53 am 03:53 Mostly Clear with Mist and Fog 62 16.7 61 16.1 96 96 Calm 29.95 1014 6 9.65604 0 0
4:53 am 04:53 Clear 61 16.1 60 15.6 97 97 Calm 29.94 1014 8 12.87472 0 0
5:12 am 05:12 Clear with Mist and Fog 61 16.1 60 15.6 97 97 Calm 29.95 1014 0.75 1.207005 0 0
5:53 am 05:53 Clear with Fog 60 15.6 59 15 96 96 Calm 29.93 1014 0.25 0.402335 0 0
6:09 am 06:09 Mostly Cloudy with Fog 60 15.6 59 15 96 96 Calm 29.94 1014 0.25 0.402335 0 0
6:50 am 06:50 Partly Cloudy with Mist and Fog 59 15 59 15 100 100 Calm 29.95 1014 4 6.43736 0 0
6:53 am 06:53 Partly Cloudy with Mist and Fog 59 15 59 15 100 100 Calm 29.94 1014 4 6.43736 0 0
7:53 am 07:53 Mostly Cloudy with Mist and Fog 62 16.7 62 16.7 100 100 Calm 29.95 1014 6 9.65604 0 0
8:53 am 08:53 Mostly Cloudy 68 20 64 17.8 87 87 W 3 6 29.96 1015 10 16.0934 0 0
9:53 am 09:53 Mostly Cloudy 71 21.7 65 18.3 81 81 Calm 29.96 1015 10 16.0934 0 0
10:53 am 10:53 Sunny 76 24.4 65 18.3 69 69 S 9 15 29.95 1014 10 16.0934 0 0
11:53 am 11:53 Sunny 79 26.1 65 18.3 62 62 S 9 15 29.94 1014 10 16.0934 0 0
12:53 pm 12:53 Sunny 81 27.2 64 17.8 57 57 SSW 14 22 29.92 1013 10 16.0934 0 0
1:53 pm 13:53 Partly Cloudy 81 27.2 62 16.7 53 53 SSW 14 22 29.91 1013 10 16.0934 0 0
2:53 pm 14:53 Sunny 82 27.8 64 17.8 55 55 SSW 8 13 29.88 1012 10 16.0934 0 0
3:53 pm 15:53 Mostly Cloudy 77 25 62 16.7 60 60 S 14 22 29.88 1012 10 16.0934 0 0
4:53 pm 16:53 Mostly Cloudy with Light Rain 78 25.6 66 18.9 67 67 Calm 29.85 1011 10 16.0934 0.001 0.001
5:53 pm 17:53 Cloudy with Heavy Rain 71 21.7 66 18.9 84 84 SW 7 11 29.87 1012 4 6.43736 0.06 1.524
6:53 pm 18:53 Cloudy with Light Rain 71 21.7 68 20 90 90 ENE 3 6 29.85 1011 8 12.87472 0.03 0.762
7:53 pm 19:53 Partly Cloudy with Mist and Fog 69 20.6 68 20 96 96 ENE 3 6 29.82 1010 5 8.0467 0.02 0.508
8:53 pm 20:53 Cloudy with Mist and Fog 68 20 67 19.4 96 96 Calm 29.82 1010 5 8.0467 0 0
9:48 pm 21:48 Cloudy with Mist and Fog 68 20 66 19 94 94 Calm 29.82 1010 4 6.43736 0 0
9:53 pm 21:53 Cloudy with Mist and Fog 67 19.4 67 19.4 100 100 Calm 29.82 1010 4 6.43736 0 0
10:00 pm 22:00 Cloudy with Mist and Fog 66 18.9 66 18.9 100 100 Calm 29.82 1010 1 1.60934 0 0
10:25 pm 22:25 Mostly Cloudy with Mist and Fog 67 19.4 67 19.4 100 100 Calm 29.82 1010 1 1.60934 0 0
10:32 pm 22:32 Cloudy with Mist and Fog 67 19.4 67 19.4 100 100 Calm 29.82 1010 1 1.60934 0 0
10:53 pm 22:53 Cloudy with Light Rain 66 18.9 66 18.9 100 100 Calm 29.82 1010 1 1.60934 0.001 0.001
11:00 pm 23:00 Cloudy with Light Rain 67 19.4 66 18.9 97 97 Calm 29.82 1010 1.5 2.41401 0.001 0.001
11:18 pm 23:18 Mostly Cloudy with Fog 67 19.4 67 19.4 100 100 Calm 29.82 1010 0.5 0.80467 0.001 0.001
11:32 pm 23:32 Mostly Cloudy with Fog 66 18.9 66 18.9 100 100 Calm 29.81 1009 0.25 0.402335 0.001 0.001
11:36 pm 23:36 Mostly Cloudy with Fog 66 18.9 66 18.9 100 100 S 3 6 29.81 1009 0.25 0.402335 0.001 0.001
11:53 pm 23:53 Mostly Cloudy with Fog 65 18.3 65 18.3 100 100 Calm 29.81 1009 0.25 0.402335 0.001 0.001

Powered by AerisWeather